Location: Peebles
(55.6412°N, 3.1714°W)
Time: 15:08:30
(UTC+01:00)

FLOCK 4S 19 - Pass Details

Date: 09 July 2022
Orbit: 507 x 523 km, 97.4° (Epoch: 16 August)

Event Time Altitude Azimuth Distance (km) Brightness Sun altitude
Rises 23:25:38 0° 217° (SW) 2,652 ? -8.5°
Reaches altitude 10° 23:28:49 10° 247° (WSW) 1,769 ? -8.7°
Maximum altitude 23:30:34 13° 274° (W) 1,604 ? -8.8°
Drops below altitude 10° 23:32:19 10° 301° (WNW) 1,773 ? -8.9°
Sets 23:35:32 0° 331° (NNW) 2,666 ? -9.1°
